Regional Weather Roundup
Issued by NWS Wakefield, VA

Home | Current Version | Previous Version | Text Only | Print | Product List | Glossary Off
Versions: 1 2 3 4 5 6 7 8 9 10 11 12 13 14 15 16 17 18 19 20 21 22 23 24 25 26 27 28 29 30 31 32 33 34 35 36 37 38 39 40 41 42 43 44 45 46 47 48 49 50

000
ASUS41 KAKQ 280310
RWRAKQ

REGIONAL WEATHER ROUNDUP
NATIONAL WEATHER SERVICE WAKEFIELD VA
1100 PM EDT WED AUG 27 2014

Note: "fair" indicates few or no clouds below 12,000 feet with no
significant weather and/or obstructions to visibility. * = Denotes
station may not report precipitation (e.g., rain,snow,etc.),
thunder or fog.

VAZ042-051-052>054-056-280400-
NORTHERN VIRGINIA

CITY           SKY/WX    TMP DP  RH WIND       PRES   REMARKS
WASH NATIONAL  PTCLDY    81  65  58 S3        29.92S
DULLES         PTCLDY    74  68  81 S3        29.93F
FORT BELVOIR   CLEAR     70  68  93 CALM      29.93S
QUANTICO       CLEAR     74  70  87 NW5       29.93F
FREDERICKSBRG* CLEAR     73  67  81 CALM      29.93F
STAFFORD*      CLEAR     70  70 100 CALM      29.97F
WARRENTON      CLEAR     70  70 100 CALM      29.93F
CULPEPER*      PTCLDY   N/A N/A N/A CALM      29.94F
MANASSAS*      CLEAR     73  72  94 CALM      29.93F
LEESBURG*      PTCLDY    77  73  88 SW5       29.94F
WINCHESTER     MOCLDY    73  68  83 CALM      29.97S
$$

VAZ048-049-060>072-079>083-280400-
CENTRAL AND SOUTH CENTRAL VIRGINIA...AND NORTH CENTRAL NORTH CAROLINA

CITY           SKY/WX    TMP DP  RH WIND       PRES   REMARKS
RICHMOND       PTCLDY    76  64  66 CALM      29.95S
CHESTERFIELD*  CLEAR     70  55  60 CALM      29.97S
HANOVER        CLEAR     70  66  87 CALM      29.96F
TAPPAHANNOCK*  CLEAR     68  64  88 CALM      29.94F
CHARLOTTSVILLE CLEAR     72  68  87 CALM      29.96F
ORANGE*        PTCLDY    70  68  94 CALM      29.96F
LOUISA*        CLEAR     68  64  88 SW3       29.95F
FARMVILLE*     CLEAR     66  66 100 CALM      29.96F
SOUTH HILL*    CLEAR     66  66 100 CALM      30.03R
ROANOKE RAPIDS CLEAR     64  64 100 CALM      29.96S
RALEIGH        PTCLDY    66  60  81 CALM      30.00S
$$

VAZ088>098-280400-
SOUTHEAST VIRGINIA

CITY           SKY/WX    TMP DP  RH WIND       PRES   REMARKS
NORFOLK        CLEAR     71  66  84 SW3       29.93S
VIRGINIA BEACH CLEAR     68  65  90 W5        29.92F
NORFOLK NAVAL  CLEAR     71  65  81 SW3       29.94F
WEST POINT*    CLEAR     69  65  87 CALM      29.95S
NEWPORT NEWS   CLEAR     70  63  78 CALM      29.94S
LANGLEY AFB    CLEAR     68  66  95 W2        29.93S
FORT EUSTIS    CLEAR     71  65  83 CALM      29.92S
WILLIAMSBURG*  CLEAR     72  66  83 CALM      29.94F
FRANKLIN*      CLEAR     66  64  94 CALM      29.95R
WAKEFIELD      CLEAR     68  65  90 CALM      29.95S
$$

VAZ020-022-025-037-045-280400-
WESTERN AND SOUTHWEST VIRGINIA

CITY           SKY/WX    TMP DP  RH WIND       PRES   REMARKS
STAUNTON*      CLEAR     71  66  84 CALM      30.03S
HOT SPRINGS VA PTCLDY    67  61  83 NW14G21   30.19R
LYNCHBURG      CLEAR     69  66  90 W3        30.02S
DANVILLE       CLEAR     69  66  90 SW3       30.01R
MARTINSVILLE   CLEAR     66  66  99 CALM      30.05S
ROANOKE        CLEAR     74  64  71 CALM      30.05S
BLACKSBURG     CLEAR     70  66  88 CALM      30.12S
DUBLIN*        CLEAR     71  65  82 CALM      30.12S
MARION*        CLEAR    N/A N/A N/A SW5       30.17S
HILLSVILLE*    CLEAR     69  60  71 CALM      30.14R
RICHLANDS*     CLEAR     71  63  74 CALM      30.16S
WISE*          CLEAR     70  59  68 CALM      30.17S
ABINGDON*      CLEAR     68  63  84 CALM      30.13R
$$

MDZ021>025-VAZ099-100-280400-
SOUTHERN MARYLAND AND THE DELMARVA PENINSULA

CITY           SKY/WX    TMP DP  RH WIND       PRES   REMARKS
PATUXENT RIVER CLEAR     74  67  78 SW7       29.91F
BAY BRIDGE APT   N/A     77  68  73 CALM      29.91S
LEONARDTOWN    CLEAR     72  64  78 CALM      29.94S
DOVER          CLEAR     72  68  86 S5        29.89S
GEORGETOWN     CLEAR     70  65  84 S9        29.92S
EASTON         CLEAR     76  68  77 CALM      29.94
CAMBRIDGE      CLEAR     72  66  83 CALM      29.91F
SALISBURY      CLEAR     72  65  78 CALM      29.92S
OCEAN CITY     CLEAR     64  62  93 CALM      29.92S
WALLOPS ISLAND CLEAR     72  66  81 W5        29.93R
ACCOMACK*      NOT AVBL
$$

NCZ012>017-030>032-280400-
EASTERN NORTH CAROLINA

CITY           SKY/WX    TMP DP  RH WIND       PRES   REMARKS
ELIZABETH CITY CLEAR     65  64  97 CALM      29.93F
AHOSKIE*       CLEAR     64  62  92 CALM      29.96S
EDENTON*       CLEAR     68  66  93 CALM      29.94F
CURRITUCK*     CLEAR     67  65  91 CALM      29.93F
KILL DEVIL HLS CLEAR     71  69  92 NW3       29.91F
MANTEO         CLEAR     71  68  89 N3        29.92F
CAPE HATTERAS  CLEAR     73  66  78 N6        29.92S
GOLDSBORO      CLEAR     69  67  94 W1        29.96F
WASHINGTON     CLEAR     67  65  93 CALM      29.96F
GREENVILLE     CLEAR     66  64  94 CALM      29.98S
NEW BERN       CLEAR     73  66  78 W5        29.97S
WILMINGTON     CLEAR     71  66  84 CALM      29.97F
$$

VAZ048-280400-
ELSEWHERE

CITY           SKY/WX    TMP DP  RH WIND       PRES   REMARKS
HARRISBURG PA  MOCLDY    79  71  76 NE5       29.91S
BALTIMORE      PTCLDY    74  68  81 CALM      29.91S
ANNAPOLIS        N/A     77  68  73 MISG      29.90F
ANDREWS AFB    CLEAR     76  67  74 W6        29.92S
WILMINGTON DE  CLEAR     77  67  71 CALM      29.91S
PHILADELPHIA   PTCLDY    79  67  66 SW8       29.90S
WILDWOOD NJ*   CLEAR     72  64  78 SW5       29.91F
ATLANTIC CITY  CLEAR     72  67  84 MISG      29.90F
HENDERSON NC   CLEAR     67  64  90 W5        29.99F
GREENSBORO     CLEAR     73  63  70 CALM      30.02S
ROCKY MOUNT    CLEAR     66  63  90 CALM      29.97F
FAYETTEVILLE   CLEAR     70  64  81 SW3       29.98F
CHARLOTTE      CLEAR     66  60  81 W5        30.04S
$$

VAZ100-280400-
MARINE

STATION/POSITION TIME  TEMP    WIND        PRES    WAVE   SWELL
                       AIR SEA DIR/SP/G            HT/PER HT/PER
                 (UTC) (F)     (DEG/KT/KT) (MB)    (FT/S) (FT/S)
44066 TX TWR #4  0300   73 74  230/  4/  6 1012.0F   6/14   7/14
CAPE MAY NJ      0300   75 81  220/  7/  9 1012.3F
LEWES DE         0300   72 78  220/  5/  6 1012.5F
15NM E FENWICK I 0300   74 75              1012.7F   4/10
OCEAN-CITY-INLET 0300   73 76  270/  4/  5 1012.6S
WACHAPREAGUE VA  0300   71 80  280/  1/  3 1013.3S
THOMAS POINT MD  0300   78 79  250/  5/  6 1013.5F
GOOSES REEF MD   0300   79     270/  6/  8 1013.3F
COVE POINT MD    0300   78     270/  7/  8 1012.7F
SOLOMONS ISLAND  0300      81                N/A
BISHOPS HEAD MD  0300   79 81  250/  7/  8 1012.5F
PINEY POINT MD   0300          260/  5/  9   N/A
POTOMAC MD       0300   78     260/  8/ 10 1012.5F
CAMBRIDGE MD     0300   76 78  200/  3/  4 1012.5F
LEWISETTA VA     0300   76 81  250/  7/  9 1012.9S
RAPPAHANNOCK LGT 0300          210/  8/  9 1013.9S
STINGRAY PT      0300   77     240/  8/ 10   N/A
YORK RVR RNG VA  0300   76     260/  4/  4 1013.0S
YORKTOWN VA      0300   73 80  250/  3/  4 1013.3S
JAMESTOWN VA     0300   72     250/  4/  4   N/A
DOMINION TERM VA 0300   77     250/  6/  7 1013.7R
KIPTOPEKE VA     0300      81  260/  5/  6   N/A
CHES BAY BRIDGE  0300   75 78  230/  5/  6 1012.9S
CAPE HENRY VA    0300   73     230/  5/  5 1012.1S
CHESAPEAKE LGHT  0200   74     310/  2/  2 1013.9F
WILLOUBY STN VA  0300   76     300/  2/  2 1012.3S
S CRANEY ISL VA  0300          210/  3/  4 1013.3R
CAPE HENRY BUOY  0300      76                N/A     4/12   3/12
1ST LANDING BUOY 0300   76     240/  6/  8 1013.0R
CAPE CHARLES BUO 0300      76                N/A     5/14   5/14
OFFSHORE WE BUOY 0300      75                N/A     6/12   5/12
64NM E OF VA BCH 0300   74 78  320/ 12/ 16 1012.0F   9/14   8/14
DUCK PIER NC     0300   74 77  330/  6/  7 1012.4F
44056 DUCK FRF   0300                        N/A     6/13   3/13
OREGON INLET NC  0300   72 79  320/  6/  8 1013.0R
HATTERAS NC      0300   77 80  360/ 13/ 15 1013.6S
DIAMOND SHLS NC  0300   75     340/ 17/ 21 1012.4S   9/12   8/12
CAPE LOOKOUT NC  0200   78     330/  7/  8 1013.9R
$$



USA.gov is the U.S. government's official web portal to all federal, state and local government web resources and services.